Weather 🌤️

Recent data

Temperatures

Wind

Pressure

Humidity & Precipitation

Last data
obsTime qcStatus tempAvg heatindexAvg windspeedAvg windgustAvg winddirAvg pressureAvg humidityAvg precipRate precipTotal
2026-08-31 11:34:56 1 22.6 22.4 9 24.1 234 999.83 55.9 0 0
2026-08-31 11:29:56 1 22.2 22 7.6 24.1 232 999.83 56 0 0
2026-08-31 11:24:56 1 21.7 21.4 5 27.8 220 999.83 57 0 0
2026-08-31 11:19:56 1 21.4 21.1 3.4 28 221 999.83 56.8 0 0
2026-08-31 11:14:56 1 21.4 21.1 10 28 232 1000 56.4 0 0
2026-08-31 11:09:56 1 21.4 21.1 14.6 28 234 999.83 56.2 0 0
2026-08-31 11:04:54 1 21.4 21.1 15.9 28 242 999.83 56.5 0 0
2026-08-31 10:59:57 1 21.4 21 16.9 28 239 999.83 56.8 0 0
2026-08-31 10:59:52 1 21.4 21 17 28 239 999.83 56.8 0 0
2026-08-31 10:54:56 1 21.3 20.9 17 28 244 999.83 57 0 0
2026-08-31 10:49:56 1 21.3 20.9 13 28 242 999.66 57 0 0
2026-08-31 10:44:56 1 21.2 20.8 13.9 28 230 999.49 57 0 0

Hourly data

Temperatures

Wind

Pressure

Humidity & Precipitation

Last data
obsTime qcStatus tempAvg heatindexAvg windspeedAvg windgustAvg winddirAvg pressureAvg humidityAvg precipRate precipTotal
2026-08-31 10:59:57 1 21 20.8 13.4 24.1 236 999.66 57.6 0 0
2026-08-31 09:59:56 1 19.7 19.7 8.7 17 235 999.32 60.3 0 0
2026-08-31 08:59:56 1 18.8 18.8 2.2 14.3 210 999.32 61.5 0 0
2026-08-31 07:59:56 0 18.5 18.5 7.1 28.6 231 998.65 62 0 0
2026-08-31 06:59:52 0 10.5 30.7 236 998.31 0 0
2026-08-31 05:59:52 0 19.7 19.7 15.4 27.5 231 997.8 61 0 0
2026-08-31 04:59:52 0 20.3 20.3 9.9 19.4 233 998.31 59.4 0 0
2026-08-31 03:59:51 0 4.7 9.4 230 998.31 0 0
2026-08-31 02:59:52 0 2.1 10.5 226 997.97 0 0
2026-08-31 01:59:54 0 2.5 11 230 997.63 0 0
2026-08-31 00:59:54 0 2.7 8.4 223 997.63 0 0
2026-08-30 23:59:54 0 0.9 4.7 190 997.46 0 0
2026-08-30 22:59:54 0 23.2 23.3 1.9 6.4 179 996.62 65.4 0 0
2026-08-30 21:59:54 0 24.6 24.7 2 7.3 200 995.43 60.7 0 0
2026-08-30 20:59:54 0 26.1 26.3 3 14.1 228 994.25 54.1 0 0
2026-08-30 19:59:56 1 27.2 27.7 7.7 21.1 233 993.4 51.8 0 0
2026-08-30 18:59:54 1 28 28.3 8.4 20.6 232 993.06 48.9 0 0
2026-08-30 17:59:53 1 27.4 28 3.3 7.7 220 993.23 52 0 0
2026-08-30 16:59:54 1 26.8 27.5 2.8 6.9 226 993.74 54 0 0
2026-08-30 15:59:53 1 26.4 26.6 2.1 8.5 232 994.42 55.2 0 0
2026-08-30 14:59:54 1 26 26.1 3.3 8.3 243 994.92 56.5 0 0
2026-08-30 13:59:53 1 25.4 25.5 3.6 8.7 266 995.6 57.3 0 0
2026-08-30 12:59:53 1 24.6 24.6 2.6 6.5 247 996.11 59 0 0
2026-08-30 11:59:53 1 23.9 23.9 2.7 7.5 189 996.62 60.1 0 0